Hakodate Airport, Japan

7:46 PM JST on March 24, 2017 (GMT +0900)
Hakodate

Weather History for RJCH - March, 2014

Change the Weather History Date:

Sunday, March 30, 2014

  Actual Average Record
Temperature  
Mean Temperature 36 °F -  
Max Temperature 39 °F 49 °F 55 °F (2002)
Min Temperature 33 °F 36 °F 19 °F (1999)
Degree Days  
Heating Degree Days 29    
Moisture  
Dew Point 30 °F    
Average Humidity 79    
Maximum Humidity 93    
Minimum Humidity 65    
Precipitation  
Precipitation 0.00 in - - ()
Sea Level Pressure  
Sea Level Pressure 29.77 in    
Wind  
Wind Speed 15 mph ()    
Max Wind Speed 22 mph    
Max Gust Speed 31 mph    
Visibility 5.1 miles    
Events Rain , Snow    
Averages and records for this station are not official NWS values.
T = Trace of Precipitation, MM = Missing Value Source: Averaged Metar Reports

Daily Weather History Graph

Daily Weather History Graph

Search for Another Location

Airport or City:

Trip Planner

Search our weather history database for the weather conditions in past years. The results will help you decide how hot, cold, wet, or windy it might be!

Date:

Astronomy

Mar. 30, 2014 Rise Set
Actual Time 5:24 AM JST 5:59 PM JST
Civil Twilight 4:56 AM JST 6:27 PM JST
Nautical Twilight 4:23 AM JST 7:00 PM JST
Astronomical Twilight 3:49 AM JST 7:34 PM JST
Moon 4:46 AM JST (3/30) 5:28 PM JST (3/30)
Length of Visible Light 13h 31m
Length of Day
12h 35m
Waning Crescent, 1% of the Moon is Illuminated
Mar 30
Waning Crescent
Mar 31
New
Apr 7
First Quarter
Apr 15
Full
Apr 22
Last Quarter

Hourly Weather History & Observations

Time (JST) Temp. Windchill Dew Point Humidity Pressure Visibility Wind Dir Wind Speed Gust Speed Precip Events Conditions
6:10 AM 37.4 °F 28.2 °F 28.4 °F 70% 29.92 in 6.2 mi East 16.1 mph - N/A   Overcast
7:00 AM 39.2 °F 31.2 °F 28.4 °F 65% 29.92 in 6.2 mi East 13.8 mph - N/A   Overcast
7:41 AM 39.2 °F 29.6 °F 30.2 °F 70% 29.89 in 6.2 mi East 19.6 mph 31.1 mph N/A   Overcast
8:00 AM 39.2 °F 29.6 °F 30.2 °F 70% 29.89 in 6.2 mi East 19.6 mph - N/A   Overcast
8:16 AM 39.2 °F 29.6 °F 30.2 °F 70% 29.86 in 6.2 mi East 19.6 mph 31.1 mph N/A   Overcast
9:00 AM 39.2 °F 29.0 °F 30.2 °F 70% 29.89 in 6.2 mi ESE 21.9 mph - N/A   Mostly Cloudy
10:00 AM 35.6 °F 24.8 °F 30.2 °F 81% 29.86 in 6.2 mi East 19.6 mph - N/A Snow Light Snow
10:38 AM 37.4 °F 27.8 °F 32.0 °F 81% 29.83 in 6.2 mi East 17.3 mph 28.8 mph N/A Rain , Snow Light Rain
11:00 AM 35.6 °F 25.2 °F 32.0 °F 87% 29.83 in 6.2 mi East 18.4 mph 31.1 mph N/A Rain , Snow Light Snow
12:00 PM 35.6 °F 25.9 °F 32.0 °F 87% 29.83 in 5.0 mi East 16.1 mph - N/A Snow Light Snow
1:00 PM 35.6 °F 26.2 °F 30.2 °F 81% 29.77 in 5.0 mi East 15.0 mph - N/A Snow Light Snow
2:00 PM 35.6 °F 25.9 °F 28.4 °F 75% 29.74 in 6.2 mi East 16.1 mph - N/A Snow Light Snow
2:06 PM 35.6 °F 25.5 °F 26.6 °F 70% 29.74 in 6.2 mi East 17.3 mph 29.9 mph N/A Snow Light Snow
3:00 PM 33.8 °F 23.5 °F 28.4 °F 81% 29.71 in 6.2 mi East 16.1 mph - N/A Snow Light Snow
3:14 PM 33.8 °F 23.2 °F 28.4 °F 81% 29.71 in - East 17.3 mph - N/A Snow Light Snow
4:00 PM 33.8 °F 23.9 °F 28.4 °F 81% 29.68 in 2.8 mi East 15.0 mph - N/A Snow Light Snow
4:47 PM 33.8 °F 23.5 °F 30.2 °F 87% 29.65 in 3.1 mi East 16.1 mph - N/A Snow Light Snow
5:00 PM 33.8 °F 23.9 °F 30.2 °F 87% 29.65 in 3.1 mi East 15.0 mph - N/A Snow Light Snow
6:00 PM 33.8 °F 27.0 °F 30.2 °F 87% 29.65 in 3.1 mi East 8.1 mph - N/A Snow Light Snow
6:09 PM 33.8 °F 26.4 °F 30.2 °F 87% 29.65 in - East 9.2 mph - N/A Snow Light Snow
7:00 PM 33.8 °F 24.8 °F 32.0 °F 93% 29.62 in 3.1 mi ENE 12.7 mph 26.5 mph N/A Snow Light Snow
8:00 PM 33.8 °F 25.3 °F 30.2 °F 87% 29.59 in 3.1 mi NE 11.5 mph - N/A Snow Light Snow